Terminal Aerodrome Forecast
Issued by NWS State College, PA

Home | Current Version | Previous Version | Text Only | Print | Product List | Glossary On
Versions: 1 2 3 4 5 6 7 8 9 10 11 12 13 14 15 16 17 18 19 20 21 22 23 24 25 26 27 28
000
FTUS41 KCTP 260433 AAB
TAFIPT
TAF AMD
KIPT 260433Z 2605/2624 VRB03KT P6SM SKC
     FM260600 29010G20KT P6SM VCSH BKN035
     FM260700 30015G25KT P6SM SCT030
     FM261300 30018G32KT P6SM BKN040=

USA.gov is the U.S. government's official web portal to all federal, state and local government web resources and services.